Terminal Aerodrome Forecast
Issued by NWS

Home | Current Version | Previous Version | Text Only | Print | Product List | Glossary On
Versions: 1 2 3 4 5 6 7 8 9 10 11 12
000
FTUS46 KSTO 191726
TAFSMF
TAF
KSMF 191726Z 1918/2018 VRB03KT P6SM BKN250
     FM192000 33006KT P6SM BKN250
     FM200400 22005KT P6SM SKC=

USA.gov is the U.S. government's official web portal to all federal, state and local government web resources and services.